�������l�o���
Date,Time,MP-1(��Sv/h),MP-2(��Sv/h),MP-3(��Sv/h),MP-4(��Sv/h),MP-5(��Sv/h),MP-6(��Sv/h),MP-7(��Sv/h),MP-8(��Sv/h),����,����(m/s),���J
2018/03/29,00:00,0.866,1.443,0.901,1.684,1.147,0.487,0.852,0.818,���쐼,3.0,��
2018/03/29,00:10,0.864,1.442,0.901,1.684,1.143,0.487,0.851,0.818,���쐼,2.6,��
2018/03/29,00:20,0.867,1.442,0.900,1.685,1.145,0.488,0.852,0.817,�쐼,2.2,��
2018/03/29,00:30,0.862,1.443,0.900,1.681,1.146,0.487,0.854,0.819,�쐼,2.0,��
2018/03/29,00:40,0.867,1.445,0.900,1.682,1.144,0.489,0.854,0.818,���쐼,2.0,��
2018/03/29,00:50,0.865,1.442,0.900,1.682,1.146,0.486,0.853,0.818,��,2.6,��
2018/03/29,01:00,0.867,1.444,0.900,1.681,1.145,0.487,0.854,0.818,�k��,1.5,��
2018/03/29,01:10,0.866,1.444,0.900,1.683,1.146,0.486,0.853,0.820,���k��,0.9,��
2018/03/29,01:20,0.866,1.442,0.899,1.682,1.143,0.487,0.854,0.817,��,0.6,��
2018/03/29,01:30,0.865,1.443,0.899,1.683,1.146,0.488,0.853,0.817,���쐼,1.9,��
2018/03/29,01:40,0.865,1.444,0.900,1.683,1.146,0.488,0.853,0.817,���쐼,4.0,��
2018/03/29,01:50,0.866,1.443,0.899,1.683,1.145,0.488,0.853,0.818,���쐼,4.9,��
2018/03/29,02:00,0.865,1.444,0.901,1.681,1.146,0.487,0.853,0.818,���쐼,5.0,��
2018/03/29,02:10,0.865,1.442,0.901,1.683,1.145,0.487,0.855,0.817,���쐼,4.5,��
2018/03/29,02:20,0.862,1.443,0.899,1.682,1.146,0.488,0.853,0.818,��,5.0,��
2018/03/29,02:30,0.866,1.443,0.901,1.683,1.144,0.487,0.855,0.819,���쐼,4.3,��
2018/03/29,02:40,0.865,1.446,0.900,1.683,1.146,0.488,0.852,0.818,���쐼,3.7,��
2018/03/29,02:50,0.865,1.440,0.901,1.683,1.144,0.487,0.854,0.818,���쐼,3.9,��
2018/03/29,03:00,0.864,1.442,0.898,1.683,1.144,0.486,0.852,0.818,���쐼,4.5,��
2018/03/29,03:10,0.866,1.440,0.901,1.685,1.146,0.487,0.854,0.817,���쐼,4.2,��
2018/03/29,03:20,0.863,1.443,0.899,1.680,1.145,0.488,0.854,0.819,��,3.7,��
2018/03/29,03:30,0.866,1.442,0.898,1.682,1.146,0.486,0.855,0.818,��,3.5,��
2018/03/29,03:40,0.863,1.443,0.901,1.681,1.146,0.487,0.853,0.818,��,2.3,��
2018/03/29,03:50,0.864,1.443,0.900,1.681,1.142,0.487,0.853,0.819,��,1.7,��
2018/03/29,04:00,0.866,1.442,0.901,1.684,1.144,0.487,0.854,0.820,��,2.0,��
2018/03/29,04:10,0.866,1.446,0.902,1.684,1.144,0.487,0.855,0.818,���k��,2.8,��
2018/03/29,04:20,0.865,1.441,0.902,1.681,1.143,0.487,0.854,0.816,�쐼,2.0,��
2018/03/29,04:30,0.865,1.442,0.902,1.681,1.144,0.486,0.854,0.818,��,2.3,��
2018/03/29,04:40,0.865,1.444,0.901,1.685,1.145,0.487,0.854,0.818,-,CALM,��
2018/03/29,04:50,0.866,1.444,0.899,1.682,1.145,0.487,0.855,0.820,��쓌,0.9,��
2018/03/29,05:00,0.865,1.443,0.899,1.681,1.146,0.489,0.855,0.818,���쐼,0.9,��
2018/03/29,05:10,0.862,1.444,0.900,1.681,1.146,0.487,0.853,0.819,�k��,1.9,��
2018/03/29,05:20,0.864,1.444,0.902,1.683,1.143,0.487,0.854,0.818,��,3.6,��
2018/03/29,05:30,0.866,1.445,0.902,1.685,1.144,0.489,0.854,0.820,��,6.7,��
2018/03/29,05:40,0.865,1.445,0.901,1.686,1.146,0.489,0.856,0.817,��,5.8,��
2018/03/29,05:50,0.866,1.445,0.903,1.683,1.144,0.486,0.856,0.820,��,6.3,��
2018/03/29,06:00,0.868,1.445,0.901,1.685,1.144,0.488,0.855,0.820,��,6.9,��
2018/03/29,06:10,0.867,1.446,0.903,1.685,1.142,0.487,0.854,0.818,��,8.0,��
2018/03/29,06:20,0.868,1.447,0.903,1.688,1.145,0.489,0.855,0.818,��,7.7,��
2018/03/29,06:30,0.866,1.446,0.903,1.686,1.147,0.489,0.855,0.819,��,7.2,��
2018/03/29,06:40,0.864,1.445,0.901,1.686,1.144,0.489,0.856,0.820,��,4.9,��
2018/03/29,06:50,0.867,1.446,0.901,1.685,1.143,0.487,0.853,0.819,���쐼,3.1,��
2018/03/29,07:00,0.867,1.444,0.903,1.688,1.146,0.487,0.854,0.818,��,0.9,��
2018/03/29,07:10,0.865,1.447,0.901,1.688,1.146,0.487,0.854,0.818,�k�k��,1.2,��
2018/03/29,07:20,0.867,1.447,0.903,1.687,1.147,0.489,0.854,0.820,��,1.4,��
2018/03/29,07:30,0.866,1.446,0.903,1.685,1.148,0.486,0.854,0.820,�쓌,2.3,��
2018/03/29,07:40,0.867,1.445,0.902,1.685,1.149,0.486,0.855,0.820,�쐼,1.7,��
2018/03/29,07:50,0.868,1.440,0.904,1.685,1.149,0.486,0.855,0.819,��,2.0,��
2018/03/29,08:00,0.870,1.441,0.903,1.688,1.147,0.485,0.856,0.819,�쐼,1.2,��
2018/03/29,08:10,0.874,1.444,0.906,1.685,1.146,0.484,0.855,0.822,���쐼,6.0,��
2018/03/29,08:20,0.873,1.445,0.905,1.687,1.147,0.485,0.857,0.822,���쐼,5.0,��
2018/03/29,08:30,0.872,1.442,0.904,1.688,1.150,0.485,0.854,0.819,���쐼,5.1,��
2018/03/29,08:40,0.873,1.444,0.902,1.690,1.148,0.485,0.851,0.821,���쐼,6.4,��
2018/03/29,08:50,0.873,1.444,0.903,1.689,1.146,0.487,0.854,0.820,�쐼,5.7,��
2018/03/29,09:00,0.871,1.446,0.903,1.693,1.146,0.486,0.855,0.817,�쐼,7.4,��
2018/03/29,09:10,0.870,1.444,0.905,1.692,1.149,0.486,0.854,0.817,���쐼,10.3,��
2018/03/29,09:20,0.874,1.443,0.904,1.692,1.151,0.488,0.856,0.817,���쐼,6.2,��
2018/03/29,09:30,0.874,1.449,0.905,1.693,1.148,0.488,0.855,0.816,��쓌,4.9,��
2018/03/29,09:40,0.873,1.444,0.904,1.693,1.147,0.489,0.855,0.816,��쓌,5.6,��
2018/03/29,09:50,0.872,1.447,0.904,1.695,1.148,0.489,0.857,0.817,�쐼,3.5,��
2018/03/29,10:00,0.872,1.447,0.903,1.692,1.148,0.488,0.856,0.817,��,5.3,��
2018/03/29,10:10,0.873,1.448,0.902,1.694,1.149,0.489,0.858,0.818,���쐼,5.7,��
2018/03/29,10:20,0.875,1.446,0.902,1.695,1.151,0.491,0.857,0.817,���쐼,5.9,��
2018/03/29,10:30,0.874,1.446,0.905,1.694,1.151,0.491,0.856,0.817,��쐼,2.5,��
2018/03/29,10:40,0.873,1.447,0.904,1.693,1.152,0.490,0.855,0.816,�쓌,2.8,��
2018/03/29,10:50,0.874,1.446,0.902,1.695,1.150,0.490,0.854,0.817,��쓌,3.2,��
2018/03/29,11:00,0.873,1.445,0.902,1.695,1.152,0.488,0.854,0.817,��쓌,2.3,��
2018/03/29,11:10,0.873,1.447,0.904,1.694,1.151,0.489,0.855,0.816,��쓌,3.6,��
2018/03/29,11:20,0.875,1.452,0.903,1.694,1.150,0.489,0.857,0.816,��쓌,3.5,��
2018/03/29,11:30,0.874,1.449,0.905,1.695,1.151,0.490,0.858,0.818,��쓌,3.6,��
2018/03/29,11:40,0.876,1.448,0.904,1.694,1.152,0.489,0.857,0.818,��,4.1,��
2018/03/29,11:50,0.875,1.454,0.906,1.697,1.150,0.490,0.856,0.818,��,4.7,��
2018/03/29,12:00,0.875,1.449,0.904,1.693,1.154,0.489,0.856,0.818,��,4.8,��
2018/03/29,12:10,0.875,1.453,0.907,1.697,1.152,0.490,0.858,0.818,��쓌,6.3,��
2018/03/29,12:20,0.877,1.453,0.905,1.699,1.154,0.490,0.857,0.818,��쓌,9.2,��
2018/03/29,12:30,0.875,1.451,0.904,1.696,1.155,0.488,0.858,0.819,��쓌,8.4,��
2018/03/29,12:40,0.878,1.454,0.906,1.698,1.155,0.489,0.857,0.818,��쓌,7.9,��
2018/03/29,12:50,0.874,1.456,0.906,1.699,1.158,0.488,0.858,0.817,��쓌,9.2,��
2018/03/29,13:00,0.873,1.454,0.906,1.697,1.153,0.490,0.856,0.820,��,8.5,��
2018/03/29,13:10,0.875,1.453,0.902,1.700,1.156,0.490,0.855,0.819,��,8.8,��
2018/03/29,13:20,0.877,1.453,0.903,1.699,1.156,0.488,0.856,0.820,��,8.5,��
2018/03/29,13:30,0.875,1.455,0.905,1.698,1.154,0.489,0.856,0.819,��쓌,7.7,��
2018/03/29,13:40,0.875,1.453,0.905,1.701,1.157,0.491,0.856,0.818,��,10.2,��
2018/03/29,13:50,0.876,1.454,0.907,1.694,1.154,0.492,0.857,0.818,��쓌,10.3,��
2018/03/29,14:00,0.874,1.455,0.903,1.699,1.155,0.490,0.856,0.818,��쓌,10.6,��
2018/03/29,14:10,0.875,1.453,0.907,1.699,1.156,0.492,0.858,0.819,��쓌,11.3,��
2018/03/29,14:20,0.876,1.456,0.906,1.701,1.155,0.490,0.856,0.818,��쓌,10.7,��
2018/03/29,14:30,0.876,1.452,0.905,1.701,1.156,0.489,0.856,0.818,��쓌,11.6,��
2018/03/29,14:40,0.876,1.455,0.904,1.701,1.156,0.490,0.855,0.819,��쓌,11.1,��
2018/03/29,14:50,0.876,1.455,0.904,1.698,1.156,0.489,0.857,0.818,��쓌,10.3,��
2018/03/29,15:00,0.876,1.457,0.906,1.700,1.156,0.491,0.857,0.820,��쓌,10.5,��
2018/03/29,15:10,0.878,1.455,0.904,1.698,1.156,0.489,0.858,0.818,��쓌,10.5,��
2018/03/29,15:20,0.875,1.456,0.904,1.698,1.157,0.491,0.857,0.818,��쓌,9.7,��
2018/03/29,15:30,0.876,1.455,0.905,1.700,1.157,0.490,0.856,0.817,��쓌,10.2,��
2018/03/29,15:40,0.875,1.454,0.904,1.696,1.154,0.491,0.858,0.818,��쓌,10.0,��
2018/03/29,15:50,0.876,1.455,0.904,1.698,1.157,0.490,0.856,0.819,��쓌,9.3,��
2018/03/29,16:00,0.875,1.455,0.904,1.698,1.157,0.493,0.856,0.819,��,9.0,��
2018/03/29,16:10,0.875,1.454,0.903,1.696,1.156,0.490,0.854,0.817,��,6.1,��
2018/03/29,16:20,0.876,1.457,0.905,1.698,1.155,0.491,0.856,0.819,���쐼,1.2,��
2018/03/29,16:30,0.876,1.459,0.903,1.698,1.155,0.492,0.857,0.816,���쐼,0.6,��
2018/03/29,16:40,0.876,1.455,0.904,1.696,1.156,0.493,0.855,0.818,��,1.5,��
2018/03/29,16:50,0.876,1.457,0.904,1.699,1.154,0.492,0.855,0.817,-,CALM,��
2018/03/29,17:00,0.877,1.458,0.906,1.697,1.155,0.493,0.857,0.818,�k�k��,0.8,��
2018/03/29,17:10,0.876,1.459,0.905,1.696,1.153,0.492,0.853,0.819,�k��,1.4,��
2018/03/29,17:20,0.878,1.457,0.907,1.698,1.154,0.490,0.857,0.821,�k��,3.4,��
2018/03/29,17:30,0.876,1.459,0.910,1.699,1.156,0.493,0.854,0.820,�k��,5.9,��
2018/03/29,17:40,0.880,1.462,0.911,1.701,1.156,0.492,0.854,0.821,���k��,7.1,��
2018/03/29,17:50,0.879,1.459,0.909,1.699,1.158,0.493,0.855,0.822,���k��,6.2,�L
2018/03/29,18:00,0.880,1.461,0.909,1.700,1.160,0.492,0.855,0.822,���k��,9.6,�L
2018/03/29,18:10,0.880,1.462,0.911,1.701,1.160,0.493,0.856,0.822,���k��,12.8,�L
2018/03/29,18:20,0.880,1.460,0.912,1.700,1.160,0.493,0.857,0.823,���k��,11.6,�L
2018/03/29,18:30,0.879,1.460,0.910,1.699,1.158,0.492,0.855,0.823,���k��,9.8,�L
2018/03/29,18:40,0.880,1.459,0.908,1.699,1.158,0.492,0.855,0.820,��,6.8,��
2018/03/29,18:50,0.878,1.459,0.907,1.702,1.158,0.491,0.856,0.818,��,6.2,��
2018/03/29,19:00,0.881,1.460,0.909,1.700,1.160,0.491,0.855,0.819,��,5.6,��
2018/03/29,19:10,0.879,1.458,0.908,1.701,1.158,0.489,0.856,0.818,���k��,5.2,��
2018/03/29,19:20,0.878,1.457,0.909,1.702,1.158,0.491,0.856,0.818,�k��,3.9,��
2018/03/29,19:30,0.877,1.460,0.909,1.701,1.157,0.490,0.854,0.818,�k��,4.2,��
2018/03/29,19:40,0.879,1.460,0.908,1.701,1.156,0.489,0.855,0.819,���k��,2.9,��
2018/03/29,19:50,0.876,1.459,0.909,1.703,1.157,0.491,0.853,0.821,�k�k��,5.0,��
2018/03/29,20:00,0.878,1.456,0.908,1.699,1.155,0.489,0.855,0.821,�k,4.3,��
2018/03/29,20:10,0.879,1.456,0.910,1.701,1.157,0.489,0.855,0.821,�k,5.0,��
2018/03/29,20:20,0.878,1.459,0.908,1.699,1.160,0.491,0.853,0.822,�k,4.5,��
2018/03/29,20:30,0.878,1.459,0.907,1.700,1.156,0.490,0.853,0.820,�k,5.0,��
2018/03/29,20:40,0.878,1.457,0.907,1.703,1.155,0.489,0.854,0.820,�k�k��,4.8,��
2018/03/29,20:50,0.879,1.459,0.906,1.698,1.158,0.490,0.856,0.822,�k�k��,4.5,��
2018/03/29,21:00,0.878,1.458,0.909,1.697,1.161,0.490,0.855,0.821,�k,2.5,��
2018/03/29,21:10,0.879,1.455,0.907,1.699,1.154,0.489,0.857,0.823,�k�k��,5.0,��
2018/03/29,21:20,0.877,1.455,0.909,1.699,1.157,0.489,0.856,0.821,�k,6.1,��
2018/03/29,21:30,0.876,1.457,0.906,1.700,1.160,0.488,0.856,0.822,�k�k��,4.3,��
2018/03/29,21:40,0.877,1.457,0.909,1.701,1.159,0.489,0.855,0.820,�k�k��,4.2,��
2018/03/29,21:50,0.878,1.459,0.908,1.700,1.158,0.489,0.855,0.822,�k��,4.3,��
2018/03/29,22:00,0.878,1.457,0.909,1.698,1.157,0.488,0.857,0.821,�k�k��,6.4,��
2018/03/29,22:10,0.878,1.458,0.908,1.700,1.159,0.488,0.856,0.824,���k��,6.7,��
2018/03/29,22:20,0.877,1.456,0.906,1.701,1.158,0.488,0.856,0.822,���k��,4.6,��
2018/03/29,22:30,0.876,1.456,0.907,1.698,1.154,0.487,0.854,0.822,���k��,4.9,��
2018/03/29,22:40,0.876,1.457,0.908,1.701,1.157,0.488,0.854,0.822,���k��,4.7,��
2018/03/29,22:50,0.877,1.457,0.906,1.704,1.157,0.488,0.854,0.820,���k��,4.4,��
2018/03/29,23:00,0.877,1.456,0.907,1.696,1.157,0.487,0.852,0.823,���k��,8.3,��
2018/03/29,23:10,0.877,1.456,0.909,1.700,1.157,0.489,0.853,0.821,���k��,8.9,��
2018/03/29,23:20,0.876,1.454,0.906,1.700,1.157,0.487,0.854,0.819,���k��,8.7,��
2018/03/29,23:30,0.876,1.459,0.907,1.699,1.155,0.488,0.853,0.820,���k��,9.0,��
2018/03/29,23:40,0.877,1.457,0.909,1.699,1.157,0.487,0.853,0.820,���k��,8.9,��
2018/03/29,23:50,0.877,1.455,0.907,1.702,1.158,0.486,0.853,0.819,�k��,8.8,��
